Find Starlink 1373

NORAD ID: 45544 Int'l Des: 2020-025 Owner: SPXS Country: US Constellation: starlink operational
LEOCIRCULAR

Live Position

Loading 3D Globe...

About Starlink 1373

Description loading...

Upcoming Passes

Passes for default location (London). Set your location on the main map for personalized predictions.

Altitude History

Loading altitude history...

Two-Line Element Set

1 45544U 20025P 26124.66668981 -.00026524 00000-0 -24594-3 0 9994
2 45544 53.0441 177.8244 0003672 335.7619 213.5078 15.66406810 5947
Epoch: May 4, 2026 • Age: 4 hours

Current Status

Altitude 374.0 km
Velocity 7.69 km/s
Sub-Earth Point 45.99°N, 64.11°E
Launch Date Apr 22, 2020
Age 6 years
Type internet

Technical Details

Classification Payload
Mass 260.00 kg
Dry Mass 248.00 kg
Total Mass 260.00 kg
Length 0.20 m
Diameter 2.80 m
Span 9.00 m
Shape Box + pan
Manufacturer SPXS
Bus Type Starlink
Phase Status In Orbit
Owner/State SPXS/US

Most Searched